DW5210 Weather Reports


time (UTC)temp
C
wind
direction
speed
KPH
gust
KPH
rain 1hr
cm
rain 24hr
cm
rain mn
cm
humidity
%
barometer
mb
20260507213004 5 163 0.0 0.0 0.00 0.00 0.00 86 1015.0
20260507210504 5 163 0.0 0.0 0.00 0.00 0.00 85 1014.9
20260507193504 11 163 0.0 4.8 0.00 0.00 0.00 74 1013.8
20260507190504 12 163 0.0 3.2 0.00 0.00 0.00 71 1013.7
20260507190005 12 163 0.0 4.8 0.00 0.00 0.00 70 1013.7
20260507183504 12 163 3.2 8.0 0.00 0.00 0.00 71 1013.7
20260507180005 13 167 4.8 11.3 0.00 0.00 0.00 70 1013.5
20260507170504 13 176 1.6 11.3 0.00 0.00 0.00 68 1013.3
20260507170009 14 159 3.2 9.7 0.00 0.00 0.00 67 1013.4
20260507163504 14 166 6.4 11.3 0.00 0.00 0.00 64 1013.2
20260507163005 14 166 4.8 11.3 0.00 0.00 0.00 62 1013.3
20260507160005 14 174 1.6 8.0 0.00 0.00 0.00 66 1013.4
20260507150006 15 179 4.8 19.3 0.00 0.00 0.00 67 1013.7
20260507143005 15 191 8.0 14.5 0.00 0.00 0.00 62 1013.6
20260507140504 15 190 6.4 19.3 0.00 0.00 0.00 64 1013.7
20260507133504 16 27 1.6 8.0 0.00 0.00 0.00 46 1013.7
20260507130504 16 27 1.6 8.0 0.00 0.00 0.00 48 1013.8
20260507130004 16 26 0.0 4.8 0.00 0.00 0.00 50 1013.8
20260507120504 17 27 3.2 9.7 0.00 0.00 0.00 45 1013.8
20260507113504 16 34 1.6 4.8 0.00 0.00 0.00 48 1013.9
20260507110504 17 197 6.4 9.7 0.00 0.00 0.00 48 1014.1
20260507110005 17 196 1.6 4.8 0.00 0.00 0.00 50 1014.1
20260507103007 16 137 3.2 8.0 0.00 0.00 0.00 53 1014.2
20260507090006 14 155 1.6 4.8 0.00 0.00 0.00 67 1014.5
20260507083005 13 162 4.8 9.7 0.00 0.00 0.00 72 1014.6
20260507080005 11 10 3.2 8.0 0.00 0.00 0.00 85 1014.7
20260507073504 8 10 0.0 1.6 0.00 0.00 0.00 91 1014.7
20260507073006 8 15 0.0 0.0 0.00 0.00 0.00 93 1014.7
20260507070504 5 15 0.0 0.0 0.00 0.00 0.00 95 1014.7
20260507063005 3 15 0.0 0.0 0.00 0.00 0.00 96 1014.8
20260507053504 0 15 0.0 0.0 0.00 0.00 0.00 93 1014.3
20260507050005 0 15 0.0 0.0 0.00 0.00 0.00 91 1014.2
20260507043504 0 15 0.0 0.0 0.00 0.00 0.00 90 1014.2
20260507043004 0 15 0.0 0.0 0.00 0.00 0.00 90 1014.1
20260507040004 0 15 0.0 0.0 0.00 0.00 0.00 90 1014.2
20260507033504 0 15 0.0 0.0 0.00 0.00 0.00 90 1014.1
20260507033004 0 15 0.0 0.0 0.00 0.00 0.00 90 1014.1
20260507030005 0 15 0.0 0.0 0.00 0.00 0.00 90 1014.1
20260507020504 1 15 0.0 0.0 0.00 0.00 0.00 89 1013.8
20260507013004 1 15 0.0 0.0 0.00 0.00 0.00 88 1013.7
20260507010504 1 15 0.0 0.0 0.00 0.00 0.00 88 1013.7
20260507003504 2 15 0.0 0.0 0.00 0.00 0.00 87 1013.7
20260507003004 2 15 0.0 0.0 0.00 0.00 0.00 87 1013.8
20260507000004 3 15 0.0 0.0 0.00 0.00 0.00 86 1013.8
20260506233504 3 15 0.0 0.0 0.00 0.00 0.00 84 1013.6
20260506230504 5 15 0.0 0.0 0.00 0.00 0.00 83 1013.4
20260506230005 5 15 0.0 0.0 0.00 0.00 0.00 82 1013.4
20260506223504 6 15 0.0 0.0 0.00 0.00 0.00 81 1013.5
20260506223005 6 15 0.0 0.0 0.00 0.00 0.00 79 1013.5
20260506220504 7 15 0.0 0.0 0.00 0.00 0.00 76 1013.2